Погода в Новополтавском

Россия / Ростовская область     46°52′36″N   39°08′25″E
темп.,
°C
ветер,
м/с
пор.,
м/с
влажн.,
%
обл.,
%
осадки,
мм/ч
давл.,
гПа
погр.,
м
29 июня, ср
ср2900:00+21з226194 0.0 101460
03:00+21с456462 0.0 1013111
06:00+21ссв36705 0.0 1013193
09:00+26всв56565 0.0 1013517
12:00+29всв564410 0.1 10131253
15:00+31всв46380 0.1 10121436
18:00+26ююв555867 0.0 1014618
21:00+25всв59490 0.0 1014165
30 июня, чт
чт3000:00+21в410460 0.0 1015284
03:00+19в510430 0.0 1015234
06:00+19в510441 0.0 1015253
09:00+25вюв46330 0.0 1015584
12:00+28св34313 0.0 10141364
15:00+29с432979 0.0 10131666
18:00+29всв442993 0.0 10111614
21:00+24св81243100 0.0 1013545
1 июля, пт
пт100:00+21св7125597 0.0 1014695
03:00+21всв4851100 0.0 1014377
06:00+21св485014 0.0 1014387
09:00+23св564310 0.0 1014722
12:00+27с553730 0.0 10141641
15:00+28ссз66322 0.0 10121767
18:00+27ссз573584 0.0 10121799
21:00+24ссв713419 0.0 1014504
2 июля, сб
сб200:00+20св611470 0.0 1015530
03:00+17св58580 0.0 1016279
06:00+16св58570 0.0 1018398
09:00+21св56330 0.0 10191440
12:00+24с56290 0.0 10181849
15:00+25ссз56300 0.0 10171551
18:00+26ссз56320 0.0 10171503
21:00+21с48460 0.0 1018189
3 июля, вс
вс300:00+19с46530 0.0 1018162
03:00+18с33601 0.0 1017104
06:00+19с34590 0.0 1018191
09:00+23сз444854 0.0 1017711
12:00+26зсз34421 0.0 10161010
15:00+27зсз6646100 0.0 10151101
18:00+26з795257 0.0 1014352
21:00+24зюз576983 0.0 1014184